Weather reports worldwide

Advertisment
Arcen aws, Netherlands (6391): temperature & dewpoint: 11.10.2019 23:00:00 - 17.10.2019 23:00:00 (CEST)Arcen aws, Netherlands (6391): temperature 5cm: 11.10.2019 23:00:00 - 17.10.2019 23:00:00 (CEST)Arcen aws, Netherlands (6391): wind speed & gusts: 11.10.2019 23:00:00 - 17.10.2019 23:00:00 (CEST)Arcen aws, Netherlands (6391): wind direction: 11.10.2019 23:00:00 - 17.10.2019 23:00:00 (CEST)Arcen aws, Netherlands (6391): precipitation: 11.10.2019 23:00:00 - 17.10.2019 23:00:00 (CEST)
Date & Time tt [°C] td [°C] tt 5cm [°C] ff [km/h] ff [kn] fx [km/h] fx [kn] dd rr [mm]
17.10.2019 23:00:00 13,0 12,9 12,7 4 2 11 6 SSW 0,0
17.10.2019 22:00:00 13,3 13,2 13,2 7 4 14 8 SSW 0,2
17.10.2019 21:00:00 13,2 13,1 13,2 4 2 11 6 SSW 0,2
17.10.2019 20:00:00 13,2 13,1 13,3 4 2 14 8 SW 1,3
17.10.2019 19:00:00 13,5 13,4 13,6 4 2 11 6 S 0,7
17.10.2019 18:00:00 13,8 13,2 14,0 4 2 7 4 NNE 0,0
17.10.2019 17:00:00 13,8 13,0 14,0 7 4 14 8 SSE 0,0
17.10.2019 16:00:00 14,3 13,0 14,5 11 6 18 10 SSE 0,0
17.10.2019 15:00:00 14,8 11,9 15,1 14 8 22 12 S 0,0
17.10.2019 14:00:00 15,6 12,0 16,0 11 6 25 14 SSW 0,0
17.10.2019 13:00:00 15,6 12,9 15,1 7 4 18 10 SW 0,0
17.10.2019 12:00:00 13,6 13,1 13,9 7 4 14 8 SW 0,1
17.10.2019 11:00:00 13,7 13,1 14,0 7 4 14 8 WSW 0,0
17.10.2019 10:00:00 13,7 13,6 13,8 4 2 22 12 W 0,9
17.10.2019 09:00:00 14,0 13,6 14,0 7 4 22 12 SW 0,0
17.10.2019 08:00:00 13,9 13,4 13,8 7 4 25 14 SW 0,0
17.10.2019 07:00:00 13,8 13,2 13,7 11 6 25 14 SSW 0,0
17.10.2019 06:00:00 13,8 13,2 13,7 11 6 29 16 SW 0,0
17.10.2019 05:00:00 13,7 13,2 13,5 11 6 29 16 SW 0,1
17.10.2019 04:00:00 13,5 13,3 13,4 7 4 22 12 SSW 0,1
17.10.2019 03:00:00 13,5 13,1 13,4 11 6 25 14 SSW 0,8
17.10.2019 02:00:00 13,3 13,1 13,3 11 6 25 14 S 0,2
17.10.2019 01:00:00 13,3 13,0 13,3 14 8 29 16 SSW 0,6
17.10.2019 00:00:00 13,5 13,0 13,4 11 6 29 16 SSW 0,6
16.10.2019 23:00:00 13,6 13,2 13,5 11 6 29 16 SSW 0,9
16.10.2019 22:00:00 13,6 13,3 13,6 11 6 25 14 SSW 1,0
16.10.2019 21:00:00 13,6 13,3 13,6 11 6 25 14 SSW 1,4
16.10.2019 20:00:00 13,7 13,1 13,6 11 6 29 16 SSW 0,5
16.10.2019 19:00:00 13,8 13,2 13,8 11 6 32 18 SSW 0,2
16.10.2019 18:00:00 14,4 12,9 14,4 11 6 29 16 SSW 0,0
16.10.2019 17:00:00 14,4 12,9 14,4 11 6 29 16 SSW 0,0
16.10.2019 16:00:00 13,7 13,4 13,9 11 6 25 14 S 0,3
16.10.2019 15:00:00 13,9 13,0 14,2 14 8 29 16 S 0,0
16.10.2019 14:00:00 14,1 12,2 14,3 14 8 29 16 S 0,0
16.10.2019 13:00:00 14,8 10,8 14,8 11 6 32 18 SSW 0,0
16.10.2019 12:00:00 15,3 10,6 15,8 14 8 29 16 SSW 0,0
16.10.2019 11:00:00 13,9 10,8 13,9 14 8 25 14 S 0,0
16.10.2019 10:00:00 12,6 10,5 12,3 11 6 22 12 SSW 0,0
16.10.2019 09:00:00 11,8 10,3 11,2 7 4 18 10 SSW 0,0
16.10.2019 08:00:00 11,5 10,7 11,4 7 4 18 10 SSW 0,0
16.10.2019 07:00:00 11,5 10,7 11,4 7 4 22 12 SW 0,0
16.10.2019 06:00:00 11,4 10,3 11,3 7 4 22 12 SW 0,0
16.10.2019 05:00:00 11,5 10,9 11,3 7 4 18 10 SSW 0,0
16.10.2019 04:00:00 12,2 11,6 12,1 7 4 18 10 SW 0,0
16.10.2019 03:00:00 12,4 11,9 12,3 7 4 14 8 SW 0,0
16.10.2019 02:00:00 12,6 12,4 12,6 4 2 14 8 SSW 0,0
16.10.2019 01:00:00 12,8 12,6 12,8 7 4 22 12 SW 0,0
16.10.2019 00:00:00 13,2 13,0 13,1 7 4 18 10 SW 0,1
15.10.2019 23:00:00 13,4 13,2 13,4 4 2 14 8 SW 0,2
15.10.2019 22:00:00 13,5 13,4 13,5 7 4 14 8 SW 0,6
15.10.2019 21:00:00 13,6 13,4 13,6 7 4 11 6 SW 0,6
15.10.2019 20:00:00 13,8 13,7 13,8 4 2 7 4 SSW 0,4
15.10.2019 19:00:00 14,0 13,7 14,0 4 2 14 8 SSW 1,0
15.10.2019 18:00:00 14,5 13,2 14,5 4 2 18 10 SW 0,0
15.10.2019 17:00:00 15,8 13,0 15,9 7 4 14 8 SW 0,0
15.10.2019 16:00:00 16,3 14,5 16,4 4 2 18 10 SSW 0,0
15.10.2019 15:00:00 16,5 14,3 16,8 7 4 18 10 SSW 0,0
15.10.2019 14:00:00 16,4 14,8 16,4 7 4 22 12 SSW 0,0
15.10.2019 13:00:00 16,5 14,9 - 7 4 18 10 SW 0,1
15.10.2019 12:00:00 16,7 14,0 17,2 4 2 14 8 SSW 0,0
15.10.2019 11:00:00 15,9 14,0 16,0 4 2 11 6 SW 0,0
15.10.2019 10:00:00 15,1 13,8 15,0 4 2 11 6 SW 0,1
15.10.2019 09:00:00 14,4 13,1 13,5 4 2 7 4 SSW 0,0
15.10.2019 08:00:00 13,3 12,8 11,8 4 2 11 6 SW 0,0
15.10.2019 07:00:00 12,7 12,6 11,5 4 2 4 2 SW 0,0
15.10.2019 06:00:00 14,0 13,4 13,0 4 2 7 4 S 0,0
15.10.2019 05:00:00 15,7 13,4 14,3 4 2 14 8 SSW 0,0
15.10.2019 04:00:00 16,2 13,6 15,5 7 4 14 8 S 0,0
15.10.2019 03:00:00 16,7 13,7 16,0 11 6 18 10 S 0,0
15.10.2019 02:00:00 17,1 13,8 15,8 7 4 14 8 SSE 0,0
15.10.2019 01:00:00 17,2 14,1 16,2 7 4 14 8 SSE 0,0
15.10.2019 00:00:00 18,5 14,0 17,8 11 6 14 8 ESE 0,0
14.10.2019 23:00:00 19,0 13,9 18,3 7 4 14 8 ESE 0,0
14.10.2019 22:00:00 19,2 14,3 18,3 11 6 18 10 ESE 0,0
14.10.2019 21:00:00 19,4 14,6 18,5 7 4 14 8 SE 0,0
14.10.2019 20:00:00 18,8 15,0 17,7 7 4 14 8 SE 0,0
14.10.2019 19:00:00 20,1 15,0 19,3 11 6 18 10 ESE 0,0
14.10.2019 18:00:00 21,0 15,3 20,1 7 4 18 10 E 0,0
14.10.2019 17:00:00 21,7 15,2 21,0 11 6 18 10 ESE 0,0
14.10.2019 16:00:00 21,3 15,1 20,7 11 6 18 10 ESE 0,0
14.10.2019 15:00:00 20,4 15,4 19,9 11 6 22 12 ESE 0,0
14.10.2019 14:00:00 20,2 14,6 19,1 14 8 25 14 ESE 0,0
14.10.2019 13:00:00 18,8 14,2 18,7 14 8 25 14 ESE 0,0
14.10.2019 12:00:00 17,4 13,8 17,8 14 8 22 12 E 0,0
14.10.2019 11:00:00 15,8 13,9 15,6 11 6 18 10 E 0,0
14.10.2019 10:00:00 14,0 13,6 13,7 4 2 7 4 E 0,0
14.10.2019 09:00:00 11,6 11,6 11,1 3 2 - - NE -
14.10.2019 08:00:00 10,1 10,0 9,3 4 2 7 4 N 0,0
14.10.2019 07:00:00 11,1 11,0 10,2 0 0 7 4 N 0,0
14.10.2019 06:00:00 11,3 11,1 10,4 0 0 7 4 N 0,0
14.10.2019 05:00:00 12,9 12,6 12,0 4 2 7 4 S 0,0
14.10.2019 04:00:00 14,3 12,7 13,7 4 2 7 4 SSW 0,0
14.10.2019 03:00:00 14,4 12,9 13,9 4 2 14 8 WSW 0,0
14.10.2019 02:00:00 14,8 13,5 14,5 4 2 18 10 WSW 0,0
14.10.2019 01:00:00 15,3 13,7 15,1 4 2 18 10 SW 0,0
14.10.2019 00:00:00 15,7 14,7 15,5 4 2 22 12 WSW 0,0
13.10.2019 23:00:00 16,4 15,0 16,2 4 2 22 12 W 0,0
13.10.2019 22:00:00 17,4 16,3 17,2 7 4 25 14 W 2,2
13.10.2019 21:00:00 20,3 15,7 19,5 11 6 22 12 SSW 0,0
13.10.2019 20:00:00 20,9 15,7 20,2 14 8 43 23 SW 0,1
13.10.2019 19:00:00 21,8 14,8 20,9 11 6 29 16 SSW 0,0
13.10.2019 18:00:00 22,8 15,2 22,1 11 6 36 19 SSW 0,0
13.10.2019 17:00:00 23,8 14,8 23,3 18 10 43 23 SW 0,0
13.10.2019 16:00:00 23,6 15,1 22,8 18 10 36 19 SSW 0,0
13.10.2019 15:00:00 23,8 15,7 23,4 14 8 29 16 S 0,0
13.10.2019 14:00:00 22,4 15,5 21,6 18 10 36 19 S 0,0
13.10.2019 13:00:00 22,0 15,7 21,1 14 8 32 18 SSW 0,0
13.10.2019 12:00:00 21,0 16,4 19,9 14 8 25 14 S 0,0
13.10.2019 11:00:00 20,3 17,0 19,8 11 6 18 10 S 0,0
13.10.2019 10:00:00 16,8 16,2 16,6 11 6 18 10 SSE 0,0
13.10.2019 09:00:00 15,2 14,9 14,7 4 2 11 6 S 0,1
13.10.2019 08:00:00 15,0 14,3 14,5 7 4 14 8 SSE 0,0
13.10.2019 07:00:00 15,1 14,4 14,5 7 4 11 6 SSE 0,0
13.10.2019 06:00:00 15,6 14,6 15,2 7 4 11 6 SSE 0,0
13.10.2019 05:00:00 15,4 14,4 14,7 7 4 18 10 SSE 0,0
13.10.2019 04:00:00 16,3 14,5 15,8 7 4 18 10 S 0,0
13.10.2019 03:00:00 14,9 13,9 14,4 7 4 14 8 S 0,0
13.10.2019 02:00:00 14,3 13,3 13,7 4 2 11 6 S 0,0
13.10.2019 01:00:00 14,9 13,4 14,1 4 2 11 6 SSW 0,0
13.10.2019 00:00:00 14,6 13,3 13,2 4 2 14 8 SSW 0,0
12.10.2019 23:00:00 15,5 13,4 14,5 7 4 18 10 SW 0,0
12.10.2019 22:00:00 15,0 13,3 13,6 7 4 14 8 SW 0,0
12.10.2019 21:00:00 14,5 12,8 13,6 4 2 14 8 S 0,0
12.10.2019 20:00:00 15,1 12,7 14,5 4 2 11 6 S 0,0
12.10.2019 19:00:00 16,5 13,0 16,1 4 2 11 6 S 0,0
12.10.2019 18:00:00 17,7 12,5 17,4 7 4 29 16 SW 0,0
12.10.2019 17:00:00 18,3 12,2 18,1 11 6 25 14 SW 0,0
12.10.2019 16:00:00 18,8 12,4 18,6 11 6 32 18 SW 0,0
12.10.2019 15:00:00 18,5 12,9 18,5 11 6 29 16 SW 0,0
12.10.2019 14:00:00 18,1 12,9 18,3 11 6 32 18 SW 0,0
12.10.2019 13:00:00 17,7 12,4 17,6 14 8 29 16 SW 0,0
12.10.2019 12:00:00 17,2 12,6 17,2 14 8 36 19 SW 0,0
12.10.2019 11:00:00 16,4 12,5 16,3 11 6 32 18 SW 0,0
12.10.2019 10:00:00 15,4 12,0 15,3 11 6 29 16 SW 0,0
12.10.2019 09:00:00 14,6 11,5 14,2 14 8 29 16 SSW 0,0
12.10.2019 08:00:00 14,3 11,4 13,8 14 8 29 16 SW 0,0
12.10.2019 07:00:00 14,2 11,3 13,6 11 6 29 16 SW 0,0
12.10.2019 06:00:00 14,7 11,4 14,0 11 6 25 14 SW 0,0
12.10.2019 05:00:00 15,7 11,7 15,3 11 6 25 14 SW 0,0
12.10.2019 04:00:00 16,0 12,0 15,7 14 8 29 16 SSW 0,0
12.10.2019 03:00:00 16,0 12,3 15,5 11 6 25 14 SSW 0,0
12.10.2019 02:00:00 15,9 12,3 15,3 11 6 32 18 SSW 0,0
12.10.2019 01:00:00 17,3 12,2 16,8 14 8 36 19 SSW 0,0
12.10.2019 00:00:00 17,0 11,8 16,6 18 10 32 18 SW 0,0
11.10.2019 23:00:00 16,6 11,8 16,0 14 8 32 18 SW 0,0

tt = temperature
td = dewpoint
tt 5cm = temperature 5cm
ff = wind speed
fx = gusts
dd = wind direction
rr = precipitation

Next stations